User: anonymous
Location: Unspecified
(0.0000°N, 0.0000°E)
Time: 00:24:24
(UTC+02:00)
Language:

Resurs 1-3 - Orbit

View from above orbital plane
View from above orbital plane
View from above satellite
View from above satellite

Ground track
Ground track

The orbit data is extracted from the following two-line orbital elements,

1 23342U 94074A   14232.10407000  .00000186  00000-0  32884-4 0  2719
2 23342 098.1661 243.1898 0001676 129.8056 270.9063 14.78442609 65231
Epoch (UTC): 20 August 2014 02:29:51
Eccentricity: 0.0001676
inclination: 98.1661°
perigee height: 633 km
apogee height: 635 km
right ascension of ascending node: 243.1898°
argument of perigee: 129.8056°
revolutions per day: 14.78442609
mean anomaly at epoch: 270.9063°
orbit number at epoch: 6523

The dashed part of the orbit path shows where the satellite is in the earth's shadow,  

DLR